www.pogodaiklimat.ru

Погода и климат >> Архив погоды >> Канада >> Baker Lake Airport


ПОГОДА в Baker Lake Airport

  • Прогноз погоды в Baker Lake Airport
  • Монитор погоды в Baker Lake Airport
  • Климат города

АРХИВ ПОГОДЫ в Baker Lake Airport

Время (UTC), дата Ветер
(напр.,м/с)
 
Видим.   Явления Облачность Т
(С)
Тd
(С)
f
(%)
Тe
(С)
Тes
(С)
Комфортность P
(гПа)
Po
(гПа)
Тmin
(С)
Tmax
(С)
R
(мм)
R24
(мм)
S
(см)
18 15.11 З 3 30 км {снег} 4/1 600 м
[Sc As trans Ci fib]
-25.1 -28.6 72 -34 -34 опасность
обморожения
1025.7 1023.2 -25.5 -18.3 0.0 5
21 15.11 З 2 30 км 3/0 2000 м
[]
-23.8 -27.3 73 -30 -30 1025.5 1023.0
00 16.11 ЮЗ 1 24 км 5/5 600 м
[Sc]
-25.4 -28.6 74 -29 -29 1025.5 1023.0 -26.0 -18.3
03 16.11 З 4 24 км 3/3 600 м
[]
-23.9 -27.1 75 -34 -34 опасность
обморожения
1025.3 1022.8
06 16.11 З 5 24 км слабый снег 10/10 300 м
[Sc]
-20.9 -24.0 76 -31 -31 опасность
обморожения
1024.8 1022.3 -26.0 -18.3 0.0 151
09 16.11 З 4 24 км 10/10 300 м
[]
-20.5 -23.5 77 -29 -29 1024.3 1021.8
12 16.11 З 4 24 км слабый снег 10/10 300 м
[Sc]
-19.4 -22.3 78 -28 -28 1023.8 1021.3 -26.0 -18.3 0.0 5
15 16.11 ЮЗ 5 30 км 9/9 300 м
[]
-24.0 -26.7 78 -35 -35 опасность
обморожения
1023.0 1020.5
18 16.11 ЮЗ 3 30 км {снег} 6/1 200 м
[Sc Ac trans]
-24.6 -27.7 75 -33 -33 опасность
обморожения
1021.8 1019.3 -26.0 -19.1 0.0 5
21 16.11 ЮВ 2 24 км 10/10 100 м
[]
-22.5 -24.5 84 -29 -29 1020.7 1018.2
00 17.11 ЮВ 8 16 км ледяные иглы {снег} 9/9 200 м
[Sc]
-19.2 -21.6 81 -31 -31 опасность
обморожения
1019.1 1016.6 -25.5 -19.2 0.0 5
03 17.11 ЮВ 7 24 км 10/0 2000 м
[]
-18.7 -21.4 79 -30 -30 1017.4 1014.9
06 17.11 8000 м метель {снег} н/о -17.5 -20.1 80 -29 -29 1015.5 1013.0 -25.5 -17.5 0.0 2
09 17.11 В 9 800 м ясно -16.9 -19.2 82 -29 -29 1013.1 1010.6
12 17.11 В 12 800 м метель 10/10 300 м
[Sc]
-14.3 -16.2 85 -27 -27 1009.5 1007.0 -19.2 -17.5 21 7
15 17.11 В 12 400 м 8/8 200 м
[]
-12.0 -13.7 87 -24 -24 1006.4 1004.0
18 17.11 12 800 м слабый снег {метель} н/о -8.8 -10.2 90 -20 -20 1004.4 1002.0 -25.0 -8.8 2 7
21 17.11 В 11 2400 м 9/9 300 м
[]
-7.3 -8.5 91 -18 -18 1002.9 1000.5
00 18.11 В 11 11 км слабый снег {метель} 10/10 300 м
[Sc]
-6.4 -7.7 90 -17 -17 1002.1 999.7 -18.0 -6.4 2 9
03 18.11 В 12 8000 м 10/10 300 м
[]
-5.6 -6.8 91 -16 -16 1001.4 999.0
06 18.11 В 12 8000 м пыльный позёмок {снег, метель} 10/10 300 м
[Sc]
-4.9 -6.0 92 -15 -15 1001.0 998.6 -18.0 -4.7 0.8 142
09 18.11 В 11 8000 м 10/10 300 м
[]
-4.8 -5.9 92 -15 -15 1001.9 999.5
12 18.11 В 10 12 км слабый снег {метель} 10/10 300 м
[Sc]
-5.0 -6.1 92 -15 -15 1002.7 1000.3 -6.5 -4.7 0.6
15 18.11 0 2000 м 10/10 300 м
[]
-5.5 -6.6 92 1003.5 1001.1
18 18.11 В 11 6000 м слабый снег 10/10 300 м
[Sc]
-6.1 -7.6 89 -17 -17 1003.4 1001.0 -9.6 -4.5 0.4 9
21 18.11 В 11 3600 м 10/10 600 м
[]
-5.0 -6.3 91 -15 -15 1003.5 1001.1
00 19.11 В 9 6000 м слабый снег 10/10 300 м
[Sc]
-4.3 -5.4 92 -14 -14 1005.1 1002.7 -6.2 -4.3 0.4 9
03 19.11 В 9 8000 м 10/10 300 м
[]
-4.7 -5.8 92 -14 -14 1006.3 1003.9
06 19.11 В 9 6000 м слабый снег 10/10 600 м
[Sc]
-5.5 -6.6 92 -15 -15 1007.0 1004.6 -6.2 -4.1 0.4 171
09 19.11 СВ 7 24 км 10/10 600 м
[]
-6.1 -7.9 87 -15 -15 1007.1 1004.7
12 19.11 СВ 5 16 км слабый снег 10/10 300 м
[Sc]
-5.9 -7.4 89 -13 -13 1007.2 1004.8 -7.5 -4.1 0.6 10
15 19.11 СВ 8 6000 м 10/10 600 м
[]
-6.4 -8.1 88 -15 -15 1007.0 1004.6
18 19.11 СВ 8 4800 м слабый снег 10/9 600 м
[Sc Cs]
-6.1 -7.9 87 -15 -15 1006.8 1004.4 -7.5 -5.4 0.4 10
21 19.11 С 6 8000 м 9/9 600 м
[]
-8.7 -10.5 87 -17 -17 1006.6 1004.2
00 20.11 С 8 9000 м слабый снег 10/10 600 м
[Sc]
-8.4 -10.6 84 -18 -18 1006.6 1004.2 -9.0 -5.5 0.0 10
03 20.11 С 8 24 км 9/9 600 м
[]
-10.0 -12.2 84 -20 -20 1005.4 1003.0
06 20.11 С 10 24 км слабый снег 10/10 600 м
[Sc]
-10.0 -12.3 83 -21 -21 1004.4 1002.0 -10.3 -5.4 0.2 91
09 20.11 С 9 12 км 10/10 300 м
[]
-9.3 -11.2 86 -19 -19 1004.2 1001.8
12 20.11 С 9 16 км слабый снег 10/10 300 м
[Sc]
-8.1 -9.8 88 -18 -18 1004.1 1001.7 -10.3 -5.4 0.4 11
15 20.11 С 6 24 км 9/9 200 м
[]
-7.2 -8.9 88 -15 -15 1004.8 1002.4
18 20.11 С 6 16 км осадки на расстоянии {снег} 9/9 1000 м
[Sc Ci sp]
-7.8 -9.6 87 -16 -16 1005.3 1002.9 -10.3 -6.7 0.0 10
21 20.11 СЗ 8 8000 м 10/10 300 м
[]
-5.9 -7.6 88 -15 -15 1005.2 1002.8
00 21.11 С 9 24 км слабый снег 5/5 600 м
[Sc]
-5.7 -7.5 87 -15 -15 1005.8 1003.4 -10.0 -4.5 0.0 10
03 21.11 С 9 24 км 9/9 1000 м
[]
-7.5 -9.6 85 -17 -17 1005.3 1002.9
06 21.11 СЗ 13 8000 м метель {снег} 5/0 2000 м
[Ac As]
-9.4 -11.2 87 -21 -21 1004.4 1002.0 -10.0 -4.5 0.0 62
09 21.11 СЗ 12 6000 м 6/6 600 м
[]
-10.1 -12.0 86 -22 -22 1004.0 1001.6
12 21.11 СЗ 15 6000 м слабый снег 4/4 600 м
[Cu Sc]
-10.7 -12.6 86 -24 -24 1003.2 1000.8 -11.0 -4.5 0.0 11
15 21.11 СЗ 16 400 м 8/8 600 м
[]
-10.6 -12.3 87 -24 -24 1002.2 999.8
18 21.11 СЗ 18 <100 м сильная метель {снег} 6/0
[Ci sp]
-13.7 -15.7 85 -28 -28 1002.2 999.8 -13.7 -9.4 0.2 11
21 21.11 СЗ 16 400 м н/о -14.0 -16.0 85 -28 -28 1002.4 1000.0
00 22.11 0 400 м сильная метель н/о -15.1 -17.2 84 1001.3 998.9 -15.1 -10.3 10
03 22.11 СЗ 17 400 м 4/4 50 м
[]
-16.2 -18.6 82 -31 -31 опасность
обморожения
999.5 997.1
06 22.11 200 м сильная метель н/о -17.5 -20.0 81 -33 -33 опасность
обморожения
997.3 994.9 -17.5 -9.4 183
09 22.11 СЗ 18 200 м 4/4 100 м
[]
-19.6 -22.2 80 -36 -36 опасность
обморожения
995.3 992.9
12 22.11 400 м сильная метель н/о -20.1 -22.8 79 -36 -36 опасность
обморожения
994.2 991.8 -20.2 -9.4 10
15 22.11 З 16 400 м н/о -21.5 -24.3 78 -39 -39 опасность
обморожения
993.8 991.4

 

Местоположение метеостанции Baker Lake Airport (Канада): широта 64.30 долгота -96.06 высота над уровнем моря 18 м.

В архиве по умолчанию представлена погода в Baker Lake Airport за последнюю неделю. Архивные данные за месяц целиком и за предыдущие месяцы, начиная с января 2011 года, Вы можете получить, выбрав интересующий диапазон дат из раскрывающегося списка и нажав кнопку "Ввод!".

Внимание! Время в таблицах - всемирное. Для получения местного времени необходимо прибавить поправку, которая в Baker Lake Airport равна -6 ч.

Смотрите также архив погоды в соседних городах и на ближайших метеорологических станциях:

Погода в Baker Lake Climate (Канада) (4 км)
Погода в Back River MAPS (Канада) (199 км)
Погода в Rankin Inlet (Канада) (256 км)
Погода в Dubawnt Lake (Канада) (302 км)
Погода в Robertson Lake (Канада) (314 км)
Погода в Wager Bay (Канада) (357 км)
Погода в Arviat Climate (Канада) (370 км)
Погода в Arviat (Канада) (370 км)
Погода в Arviat Airport (Канада) (371 км)
Погода в Hanbury River ARS (Канада) (451 км)

Пояснения к столбцам:

Ветер - указаны скорость ветра в м/с - средняя за 10 мин, порывы в срок и между сроками (в фигурных скобках) и направление, откуда дует ветер: С - северный, СВ - северо-восточный, В - восточный, ЮВ - юго-восточный, Ю - южный, ЮЗ - юго-западный, З - западный, СЗ - северо-западный.
Видимость - горизонтальная дальность видимости в метрах или километрах. При видимости от 1 до 10 км при отсутствии осадков обычно наблюдается дымка, при ухудшении видимости до 1 км и менее - туман. В сухую погоду видимость может ухудшаться дымом, пылью или мглою.
Явления - указаны атмосферные явления, наблюдавшиеся в срок или в последний час перед сроком; фигурными скобками обозначены явления, наблюдавшиеся между сроками (за 1-3 часа до срока); квадратными скобками обозначены град или гололедные отложения с указанием их диаметра в мм.
Облачность - указаны через наклонную черту общая и нижняя облачность в баллах и высота нижней границы облаков в метрах; квадратными скобками обозначены формы облаков: Ci - перистые, Cs - перисто-слоистые, Cc - перисто-кучевые, Ac - высококучевые, As - высокослоистые, Sc - слоисто-кучевые, Ns - слоисто-дождевые, Cu - кучевые, Cb - кучево-дождевые. Подробнее классификацию облаков см. в Атласе облаков (PDF).
T - Температура воздуха - температура, измеренная на высоте 2 м над землей.
Td - Температура точки росы - температура, при понижении до которой содержащийся в воздухе водяной пар достигнет насыщения.
f - Относительная влажность воздуха - влажноcть воздуха, измеренная на высоте 2 м над землей.
Te - Эффективная температура - температура, которую ощущает одетый по сезону человек в тени. Характеристика душности погоды. При расчете учитывается влияние влажности воздуха и скорости ветра на теплоощущения человека.
Tes - Эффективная температура на солнце - температура, которую ощущает человек, с поправкой на солнечный нагрев. Характеристика знойности погоды. Зависит от высоты солнца над горизонтом, облачности и скорости ветра. Ночью, в пасмурную погоду, а также при ветре 12 м/с и более поправка равна нулю.
P - Атмосферное давление - приведенное к уровню моря атмосферное давление.
Po - Атмосферное давление - измеренное на уровне метеостанции атмосферное давление.
Tmin - Минимальная температура - минимум температуры воздуха на высоте 2 м над землей.
Tmax - Максимальная температура - максимум температуры воздуха на высоте 2 м над землей.
R - Количество осадков - Количество выпавших осадков за период времени, мм. При наведении курсора мыши на число - период времени, за который выпало указанное количество осадков.
R24 - Количество осадков - Количество выпавших осадков за 24 часа, мм.
S - Снежный покров - Высота снежного покрова, см. При наведении курсора мыши на число - состояние снежного покрова и степень покрытия местности в баллах.